Location: Bremen
(53.0793°N, 8.8017°E)
Time: 18:21:30
(UTC+01:00)

Vanguard 1 Rocket - Pass Details

Date: 11 December 2021
Orbit: 651 x 4224 km, 34.3° (Epoch: 21 January)

Event Time Altitude Azimuth Distance (km) Brightness Sun altitude
Rises 06:04:10 0° 262° (W) 5,272 - -20.2°
Reaches altitude 10° 06:07:50 10° 250° (WSW) 4,733 - -19.7°
Exits shadow 06:09:00 13° 246° (WSW) 4,612 10.5 -19.5°
Maximum altitude 06:18:54 27° 200° (SSW) 4,642 10.9 -18.1°
Drops below altitude 10° 06:35:24 10° 154° (SSE) 7,107 12.5 -15.7°
Sets 06:42:58 0° 144° (SE) 8,394 13.3 -14.6°
